Hourly Data Report for October 18, 2017

All times are specified in Local Standard Time (LST). Add 1 hour to adjust for Daylight Saving Time where and when it is observed.

OTTAWA INTL A
ONTARIO

45°19'00.000" N
75°40'00.000" W
114.90 m
6106001
71628
YOW

Download Data

Hourly Data (October 2017)
Hourly Data Report for October 18, 2017
Temp Definition
°C
Dew Point Temp Definition
°C
Rel Hum Definition
%
Wind Dir Definition
10's deg

Wind Spd Definition
km/h
Visibility Definition
km
Stn Press Definition
kPa
Hmdx Definition


Wind Chill Definition


Weather Definition


TIME
00:00 Legend Double Dagger 11.0 8.3 83 24 16 24.1 100.40     LegendNANA
01:00 Legend Double Dagger 10.3 8.0 85 24 14 24.1 100.45     Clear
02:00 Legend Double Dagger 9.6 7.6 88 23 14 24.1 100.48     LegendNANA
03:00 Legend Double Dagger 8.1 6.9 92 24 12 24.1 100.54     LegendNANA
04:00 Legend Double Dagger 8.6 7.2 91 26 6 24.1 100.66     Clear
05:00 Legend Double Dagger 7.8 6.8 94 20 7 24.1 100.74     LegendNANA
06:00 Legend Double Dagger 5.5 4.9 96 24 10 24.1 100.81     LegendNANA
07:00 Legend Double Dagger 6.7 6.1 96 21 5 24.1 100.90     Mainly Clear
08:00 Legend Double Dagger 9.6 7.9 89 24 9 24.1 100.97     LegendNANA
09:00 Legend Double Dagger 12.3 8.4 77 27 6 24.1 101.00     LegendNANA
10:00 Legend Double Dagger 14.6 9.5 72 15 9 24.1 100.97     Mainly Clear
11:00 Legend Double Dagger 16.6 9.2 61 20 13 24.1 100.94     LegendNANA
12:00 Legend Double Dagger 18.0 8.1 52 19 16 24.1 100.90     LegendNANA
13:00 Legend Double Dagger 19.2 6.2 42 22 20 24.1 100.81     Mainly Clear
14:00 Legend Double Dagger 20.0 7.6 44 20 22 24.1 100.73     LegendNANA
15:00 Legend Double Dagger 20.4 8.9 47 19 21 24.1 100.67     LegendNANA
16:00 Legend Double Dagger 19.3 10.1 55 19 16 24.1 100.62     Mainly Clear
17:00 Legend Double Dagger 17.1 10.5 65 19 12 24.1 100.61     LegendNANA
18:00 Legend Double Dagger 15.2 9.2 67 17 14 24.1 100.64     LegendNANA
19:00 Legend Double Dagger 13.3 9.1 75 16 13 24.1 100.66     Clear
20:00 Legend Double Dagger 12.6 9.5 81 16 11 24.1 100.62     LegendNANA
21:00 Legend Double Dagger 11.7 9.0 83 13 7 24.1 100.57     LegendNANA
22:00 Legend Double Dagger 9.8 8.0 88 16 6 24.1 100.53     Clear
23:00 Legend Double Dagger 10.8 8.3 85 19 12 24.1 100.48     LegendNANA

Notes on Data Quality.

Legend

  • E = Estimated
  • M = Missing
  • NA = Not Available
  • ‡ = Partner data that is not subject to review by the National Climate Archives
Date modified: